[Date Prev][Date Next][Thread Prev][Thread Next] - [Date Index][Thread Index][Author Index]
2 Line ISS Keps 12-8
- Subject: [sarex] 2 Line ISS Keps 12-8
- From: "Dave Larsen PhD" <doc@xxxxxxxxxxx>
- Date: Wed, 8 Dec 2004 00:29:26 -0800
ISS
1 25544U 98067A 04343.23931713 .00015851 00000-0 12769-3 0 3153
2 25544 51.6379 157.3851 0004411 90.5307 260.9978 15.71099559345652
----
Via the sarex mailing list at AMSAT.ORG courtesy of AMSAT-NA.
To unsubscribe, send "unsubscribe sarex" to Majordomo@amsat.org
AMSAT Home